Simultaneous Nadir Overpasses (SNOs) Predictions

Prediction of SNOs between GOES-17 and FY3D Satellite Orbit:

Table of predicted SNOs for the next 14.0 days since TLE Epoch: 2/24/2024
Index Date Time (GOES-17) GOES-17 Lat,Lon FY3D Lat,Lon Distance(km) Time Diff (sec)
1 02/24/2024 21:07:02 -0.02,-104.66 0.82,-100.84 434.63 80
2 02/26/2024 09:29:15 0.02,-104.69 0.33,-106.19 169.76 80
3 02/27/2024 09:08:05 0.02,-104.69 -0.67,-101.70 341.41 80
4 02/28/2024 21:30:24 -0.02,-104.66 -0.57,-107.06 273.49 80
5 02/29/2024 21:14:34 -0.02,-104.66 0.44,-102.57 237.72 80
6 03/02/2024 09:36:45 0.02,-104.69 0.77,-107.90 366.69 80
7 03/03/2024 09:15:36 0.03,-104.69 -0.24,-103.42 144.21 80
8 03/04/2024 21:37:54 -0.03,-104.65 -0.98,-108.78 471.46 80
9 03/05/2024 21:22:05 -0.03,-104.64 0.03,-104.29 39.35 80
10 03/08/2024 09:25:47 0.04,-104.67 0.15,-105.15 54.68 80
